Location: *
(10.5081°N, 66.9194°W)
Time: 14:26:34
(UTC+00:00)

Daily predictions for brighter satellites

Satellite Brightness Start Highest point End
(mag) Time Altitude Azimuth Time Altitude Azimuth Time Altitude Azimuth
STARLINK-1175 3.3 22:51:55 10° NW 22:55:01 64° SW 22:58:06 10° SSE
STARLINK-1147 3.4 22:52:24 10° NW 22:55:27 62° SW 22:58:31 10° SSE
STARLINK-1146 3.4 22:52:51 10° NW 22:55:54 61° SW 22:58:58 10° SSE
Cosmos 1939 Rocket 3.8 22:52:34 10° SE 22:56:01 27° ENE 22:59:24 10° NNE
STARLINK-1152 3.4 22:53:18 10° NW 22:56:21 60° SW 22:59:24 10° SSE
STARLINK-1195 3.5 22:53:44 10° NW 22:56:48 59° SW 22:59:53 10° SSE
Cosmos 1452 Rocket 4.4 22:52:47 10° NNE 22:57:11 27° ENE 23:01:34 10° SE
STARLINK-1137 3.5 22:54:12 10° NW 22:57:15 58° SW 23:00:18 10° SSE
STARLINK-1142 3.6 22:54:38 10° NW 22:57:43 57° SW 23:00:47 10° SSE
STARLINK-1127 3.6 22:55:07 10° NW 22:58:09 55° SW 23:01:12 10° SSE
STARLINK-1184 3.6 22:55:34 10° NW 22:58:36 54° SW 23:01:39 10° SSE
STARLINK-1193 3.7 22:56:01 10° NW 22:59:04 54° SW 23:02:07 10° SSE
STARLINK-1194 3.7 22:56:28 10° NW 22:59:29 52° WSW 23:02:31 10° SSE
STARLINK-1168 3.8 22:57:16 10° NW 23:00:24 52° SW 23:03:32 10° SSE
STARLINK-1164 3.8 22:57:22 10° NW 23:00:29 51° WSW 23:03:39 10° SSE
STARLINK-1182 3.8 22:57:29 10° NW 23:00:37 51° SW 23:03:46 10° SSE
STARLINK-1172 3.9 22:58:10 10° NW 23:01:20 50° SW 23:04:29 10° SSE
STARLINK-1145 3.9 22:58:21 10° NW 23:01:29 50° SW 23:04:38 10° SSE
STARLINK-1161 3.9 22:58:31 10° NW 23:01:40 49° SW 23:04:49 10° SSE
STARLINK-1160 3.9 22:58:42 10° NW 23:01:52 49° SW 23:05:01 10° SSE
CZ-2D R/B 4.0 23:00:47 10° SE 23:04:12 31° ENE 23:07:36 10° NNE
Cosmos 1674 4.1 23:01:45 10° NE 23:04:15 17° E 23:06:45 10° SE
GPS 2-15 Rocket1 4.4 23:00:09 10° WNW 23:04:41 37° N 23:09:10 10° ENE
Cosmos 1766 3.2 23:00:57 10° S 23:04:55 82° E 23:08:54 10° N
Meteor 1-22 Rocket 4.1 23:00:35 10° S 23:05:57 59° E 23:11:09 10° NNE
Lacrosse 5 3.0 23:02:06 10° NW 23:06:55 45° WSW 23:11:45 10° SSE
SL-4 R/B 2.9 23:07:20 10° S 23:10:03 21° SE 23:12:26 11° ENE
NOSS 3-3 (A) 4.0 23:06:24 10° S 23:11:37 42° ESE 23:16:56 10° NE
NOSS 3-3 (C) 4.1 23:06:31 10° S 23:11:43 41° ESE 23:17:02 10° NE
USA 229 DEB 4.3 23:06:04 10° N 23:13:10 43° ENE 23:20:22 10° SE
USA 229 4.3 23:06:11 10° N 23:13:17 43° ENE 23:20:28 10° SE
In-Cosmos 22 4.1 23:08:26 10° N 23:13:54 72° E 23:19:15 10° SSE
Cosmos 1242 Rocket 2.4 23:17:33 10° N 23:21:01 87° W 23:24:33 10° S
Atlas 2A Centaur Rocket 2.7 23:19:26 10° W 23:22:05 25° SW 23:23:47 11° SSE
H-2A R/B 3.5 23:26:29 17° E 23:27:21 17° ENE 23:30:44 10° NE
Okean-O 4.3 23:23:39 10° SSW 23:27:43 36° W 23:31:47 10° NNW
GEOS 3 Rocket 4.2 23:28:27 16° ESE 23:31:53 35° ENE 23:36:30 10° N
Cosmos 2315 Rocket 4.1 23:26:09 10° SSE 23:32:10 53° E 23:38:15 10° NNE
CSL-04 Rocket 3.6 23:27:24 10° SSE 23:32:45 70° ENE 23:38:02 10° N
SL-16 R/B 3.6 23:27:40 10° SW 23:32:59 42° WNW 23:38:17 10° N
SL-08 R/B 4.4 23:29:54 10° N 23:36:08 81° E 23:42:26 10° S
Cosmos 967 Rocket 4.5 23:34:13 10° S 23:40:27 59° ESE 23:46:44 10° NNE
YAOGAN 1 3.1 23:36:54 10° S 23:41:10 61° W 23:45:24 10° NNW
Cosmos 1455 Rocket 4.2 23:39:12 10° SSW 23:43:20 45° W 23:47:27 10° NNW
Lacrosse 4 Rocket 4.0 23:41:38 10° NW 23:45:02 22° WSW 23:48:24 10° SSW
STARLINK-1162 3.5 23:40:58 10° NW 23:45:07 87° NE 23:47:17 27° SE
STARLINK-1129 3.5 23:41:59 10° NW 23:46:07 86° ENE 23:48:09 29° SE
Meteor 2-15 4.3 23:40:37 10° S 23:46:37 66° E 23:52:36 10° NNE
Hubble Space Telescope 2.2 23:44:00 10° SSW 23:47:05 22° SSE 23:47:05 22° SSE
STARLINK-1157 3.6 23:45:55 10° NW 23:50:05 81° SW 23:52:04 30° SSE
STARLINK-1134 3.6 23:46:58 10° NW 23:51:06 81° SW 23:52:57 32° SSE
Cosmos 2251 Rocket 3.4 23:47:54 10° S 23:53:08 64° ESE 23:58:24 10° NNE
STARLINK-1159 3.8 23:50:55 10° NW 23:55:03 69° SW 23:56:53 31° SSE
